StationID,Date,MaxTemp,MinTemp,Precipitation,Snowfall,SnowDepth
"CA002200606","1974-05-01",37.04,,5.00,0.00,
"CA002200606","1974-05-02",,,0.00,0.00,
"CA002200606","1974-05-03",,,0.00,0.00,
"CA002200606","1974-05-04",,,0.00,0.00,
"CA002200606","1974-05-05",48.92,,0.00,0.00,
"CA002200606","1974-05-06",50.00,35.06,23.00,13.00,
"CA002200606","1974-05-07",51.08,32.00,0.00,0.00,
"CA002200606","1974-05-08",60.98,42.08,0.00,0.00,
"CA002200606","1974-05-09",59.00,42.98,0.00,0.00,
"CA002200606","1974-05-10",62.06,42.08,0.00,0.00,
"CA002200606","1974-05-11",66.92,48.02,0.00,0.00,
"CA002200606","1974-05-12",55.94,35.06,0.00,0.00,
"CA002200606","1974-05-13",42.08,24.98,64.00,25.00,
"CA002200606","1974-05-14",21.92,19.94,0.00,0.00,
"CA002200606","1974-05-15",33.98,15.08,5.00,5.00,
"CA002200606","1974-05-16",30.02,19.04,38.00,38.00,
"CA002200606","1974-05-17",39.92,,3.00,0.00,
"CA002200606","1974-05-18",46.94,32.00,71.00,0.00,
"CA002200606","1974-05-19",46.94,32.00,0.00,0.00,
"CA002200606","1974-05-20",57.92,35.96,0.00,0.00,
"CA002200606","1974-05-21",57.02,44.06,0.00,0.00,
"CA002200606","1974-05-22",50.00,37.94,28.00,0.00,
"CA002200606","1974-05-23",39.92,35.06,157.00,0.00,
"CA002200606","1974-05-24",35.06,30.92,36.00,0.00,
"CA002200606","1974-05-25",35.96,26.06,0.00,0.00,
"CA002200606","1974-05-26",46.04,26.06,0.00,0.00,
"CA002200606","1974-05-27",53.06,32.00,0.00,0.00,
"CA002200606","1974-05-28",64.94,39.92,0.00,0.00,
"CA002200606","1974-05-29",66.92,48.92,140.00,0.00,
"CA002200606","1974-05-30",60.08,48.02,0.00,0.00,
"CA002200606","1974-05-31",62.06,46.04,28.00,0.00,
"CA002200606","1974-06-01",53.06,39.02,0.00,0.00,
"CA002200606","1974-06-02",57.92,35.96,0.00,0.00,
"CA002200606","1974-06-03",55.04,41.00,84.00,0.00,
"CA002200606","1974-06-04",53.96,42.08,15.00,0.00,
"CA002200606","1974-06-05",60.08,42.98,0.00,0.00,
"CA002200606","1974-06-06",60.08,44.96,61.00,0.00,
"CA002200606","1974-06-07",55.94,42.08,0.00,0.00,
"CA002200606","1974-06-08",57.92,42.98,48.00,0.00,
"CA002200606","1974-06-09",60.08,44.06,0.00,0.00,
"CA002200606","1974-06-10",60.98,44.06,0.00,0.00,
"CA002200606","1974-06-11",57.92,44.96,28.00,0.00,
"CA002200606","1974-06-12",60.08,42.98,0.00,0.00,
"CA002200606","1974-06-13",62.06,46.94,25.00,0.00,
"CA002200606","1974-06-14",62.96,48.02,94.00,0.00,
"CA002200606","1974-06-15",55.04,44.06,0.00,0.00,
"CA002200606","1974-06-16",42.08,39.02,135.00,0.00,
"CA002200606","1974-06-17",48.02,35.96,10.00,0.00,
"CA002200606","1974-06-18",55.04,39.92,0.00,0.00,
"CA002200606","1974-06-19",60.08,44.06,30.00,0.00,
"CA002200606","1974-06-20",71.06,44.96,0.00,0.00,
"CA002200606","1974-06-21",71.96,59.00,0.00,0.00,
"CA002200606","1974-06-22",64.94,51.98,13.00,0.00,
"CA002200606","1974-06-23",62.96,48.92,196.00,0.00,
"CA002200606","1974-06-24",69.98,51.08,0.00,0.00,
"CA002200606","1974-06-25",71.96,53.06,41.00,0.00,
"CA002200606","1974-06-26",66.92,51.98,251.00,0.00,
"CA002200606","1974-06-27",57.92,44.96,0.00,0.00,
"CA002200606","1974-06-28",57.02,42.98,0.00,0.00,
"CA002200606","1974-06-29",66.92,44.96,0.00,0.00,
"CA002200606","1974-06-30",73.04,51.98,0.00,0.00,
"CA002200606","1974-07-01",78.98,57.02,0.00,0.00,
"CA002200606","1974-07-02",84.02,62.96,0.00,0.00,
"CA002200606","1974-07-03",75.92,66.92,76.00,0.00,
"CA002200606","1974-07-04",73.04,55.94,61.00,0.00,
"CA002200606","1974-07-05",75.92,57.92,33.00,0.00,
"CA002200606","1974-07-06",60.08,46.04,0.00,0.00,
"CA002200606","1974-07-07",69.08,46.94,0.00,0.00,
"CA002200606","1974-07-08",75.02,57.92,0.00,0.00,
"CA002200606","1974-07-09",78.08,57.92,0.00,0.00,
"CA002200606","1974-07-10",80.96,64.94,0.00,0.00,
"CA002200606","1974-07-11",84.02,66.02,0.00,0.00,
"CA002200606","1974-07-12",84.02,68.00,0.00,0.00,
"CA002200606","1974-07-13",66.92,57.92,0.00,0.00,
"CA002200606","1974-07-14",68.00,53.06,0.00,0.00,
"CA002200606","1974-07-15",71.06,51.98,0.00,0.00,
"CA002200606","1974-07-16",73.04,55.94,0.00,0.00,
"CA002200606","1974-07-17",71.96,53.96,0.00,0.00,
"CA002200606","1974-07-18",60.08,,0.00,0.00,
"CA002200606","1974-07-19",64.94,51.98,188.00,0.00,
"CA002200606","1974-07-20",51.08,48.02,84.00,0.00,
"CA002200606","1974-07-21",51.98,39.92,0.00,0.00,
"CA002200606","1974-07-22",57.92,46.04,5.00,0.00,
"CA002200606","1974-07-23",59.00,48.02,0.00,0.00,
"CA002200606","1974-07-24",62.06,48.02,64.00,0.00,
"CA002200606","1974-07-25",62.96,50.00,38.00,0.00,
"CA002200606","1974-07-26",64.04,46.04,0.00,0.00,
"CA002200606","1974-07-27",,44.96,,0.00,
"CA002200606","1974-07-28",,,,0.00,
"CA002200606","1974-07-29",48.92,42.98,0.00,0.00,
"CA002200606","1974-07-30",59.00,,0.00,0.00,
"CA002200606","1974-07-31",64.04,46.94,0.00,0.00,
"CA002200606","1974-08-01",68.00,51.98,142.00,0.00,
"CA002200606","1974-08-02",,48.92,38.00,0.00,
"CA002200606","1974-08-03",62.06,48.02,0.00,0.00,
"CA002200606","1974-08-04",62.96,46.04,0.00,0.00,
"CA002200606","1974-08-05",64.04,48.92,46.00,0.00,
"CA002200606","1974-08-06",57.92,42.98,114.00,0.00,
"CA002200606","1974-08-07",48.02,44.96,150.00,0.00,
"CA002200606","1974-08-08",57.92,42.98,10.00,0.00,
"CA002200606","1974-08-09",57.02,46.94,89.00,0.00,
"CA002200606","1974-08-10",62.96,48.02,0.00,0.00,
"CA002200606","1974-08-11",64.04,44.96,25.00,0.00,
"CA002200606","1974-08-12",42.08,33.08,81.00,38.00,
"CA002200606","1974-08-13",57.02,35.06,0.00,0.00,
"CA002200606","1974-08-14",62.06,44.96,0.00,0.00,
"CA002200606","1974-08-15",55.04,39.02,0.00,0.00,
"CA002200606","1974-08-16",60.98,42.08,0.00,0.00,
"CA002200606","1974-08-17",,46.04,,,
